| time (UTC) | temp C | wind direction | speed KPH | gust KPH | rain 1hr cm | rain 24hr cm | rain mn cm | humidity % | barometer mb |
| 20260504150958 | 21 | 101 | 0.0 | 1.6 | 0.00 | 0.00 | 0.00 | 38 | 1015.6 |
| 20260504150455 | 21 | 227 | 4.8 | 6.4 | 0.00 | 0.00 | 0.00 | 39 | 1015.5 |
| 20260504140916 | 18 | 204 | 1.6 | 1.6 | 0.00 | 0.00 | 0.00 | 43 | 1016.1 |
| 20260504140412 | 18 | 110 | 0.0 | 0.0 | 0.00 | 0.00 | 0.00 | 43 | 1015.9 |
| 20260504130337 | 15 | 116 | 1.6 | 4.8 | 0.00 | 0.00 | 0.00 | 51 | 1016.7 |
| 20260504120300 | 12 | 272 | 3.2 | 3.2 | 0.00 | 0.00 | 0.00 | 57 | 1016.8 |
| 20260504110224 | 11 | 139 | 0.0 | 1.6 | 0.00 | 0.00 | 0.00 | 60 | 1017.1 |
| 20260504100148 | 11 | 153 | 0.0 | 0.0 | 0.00 | 0.00 | 0.00 | 60 | 1016.9 |
| 20260504090110 | 11 | 4 | 3.2 | 3.2 | 0.00 | 0.00 | 0.00 | 57 | 1016.9 |
| 20260504081541 | 11 | 152 | 0.0 | 0.0 | 0.00 | 0.00 | 0.00 | 61 | 1017.2 |
| 20260504081036 | 11 | 135 | 0.0 | 1.6 | 0.00 | 0.00 | 0.00 | 61 | 1017.2 |
| 20260504080533 | 11 | 156 | 0.0 | 1.6 | 0.00 | 0.00 | 0.00 | 62 | 1017.1 |
| 20260504050340 | 10 | 160 | 0.0 | 0.0 | 0.00 | 0.00 | 0.00 | 60 | 1017.5 |
| 20260504045837 | 10 | 161 | 0.0 | 0.0 | 0.00 | 0.00 | 0.00 | 60 | 1017.5 |
| 20260504045332 | 10 | 160 | 0.0 | 0.0 | 0.00 | 0.00 | 0.00 | 60 | 1017.5 |
| 20260504044829 | 10 | 160 | 0.0 | 0.0 | 0.00 | 0.00 | 0.00 | 60 | 1017.6 |
| 20260504044327 | 10 | 165 | 0.0 | 0.0 | 0.00 | 0.00 | 0.00 | 60 | 1017.6 |
| 20260504043824 | 10 | 162 | 0.0 | 0.0 | 0.00 | 0.00 | 0.00 | 59 | 1017.5 |
| 20260504043321 | 10 | 156 | 0.0 | 0.0 | 0.00 | 0.00 | 0.00 | 59 | 1017.4 |
| 20260504042818 | 10 | 153 | 0.0 | 0.0 | 0.00 | 0.00 | 0.00 | 59 | 1017.3 |
| 20260504042314 | 10 | 158 | 0.0 | 0.0 | 0.00 | 0.00 | 0.00 | 59 | 1017.4 |
| 20260504041811 | 10 | 159 | 0.0 | 0.0 | 0.00 | 0.00 | 0.00 | 59 | 1017.5 |
| 20260504041307 | 10 | 152 | 0.0 | 0.0 | 0.00 | 0.00 | 0.00 | 59 | 1017.2 |
| 20260504040803 | 10 | 144 | 0.0 | 0.0 | 0.00 | 0.00 | 0.00 | 58 | 1017.6 |
| 20260504040301 | 10 | 153 | 0.0 | 0.0 | 0.00 | 0.00 | 0.00 | 58 | 1017.4 |
| 20260504035757 | 10 | 154 | 0.0 | 0.0 | 0.00 | 0.00 | 0.00 | 58 | 1017.6 |
| 20260504035254 | 10 | 157 | 0.0 | 0.0 | 0.00 | 0.00 | 0.00 | 57 | 1017.6 |
| 20260504034751 | 10 | 160 | 0.0 | 0.0 | 0.00 | 0.00 | 0.00 | 56 | 1017.5 |
| 20260504034249 | 11 | 160 | 0.0 | 0.0 | 0.00 | 0.00 | 0.00 | 55 | 1017.4 |
| 20260504033746 | 11 | 157 | 0.0 | 0.0 | 0.00 | 0.00 | 0.00 | 54 | 1017.4 |
| 20260504033244 | 10 | 167 | 0.0 | 0.0 | 0.00 | 0.00 | 0.00 | 54 | 1017.3 |
| 20260504032740 | 11 | 153 | 0.0 | 0.0 | 0.00 | 0.00 | 0.00 | 54 | 1017.3 |
| 20260504032237 | 11 | 143 | 0.0 | 0.0 | 0.00 | 0.00 | 0.00 | 54 | 1017.1 |
| 20260504031734 | 10 | 143 | 0.0 | 0.0 | 0.00 | 0.00 | 0.00 | 54 | 1017.3 |
| 20260504031232 | 11 | 157 | 0.0 | 0.0 | 0.00 | 0.00 | 0.00 | 52 | 1017.4 |
| 20260504030727 | 11 | 157 | 0.0 | 0.0 | 0.00 | 0.00 | 0.00 | 53 | 1017.2 |
| 20260504030225 | 11 | 158 | 0.0 | 0.0 | 0.00 | 0.00 | 0.00 | 53 | 1017.3 |
| 20260504025721 | 11 | 159 | 0.0 | 0.0 | 0.00 | 0.00 | 0.00 | 53 | 1017.1 |
| 20260504025218 | 11 | 165 | 0.0 | 0.0 | 0.00 | 0.00 | 0.00 | 53 | 1017.1 |
| 20260504024715 | 11 | 167 | 0.0 | 0.0 | 0.00 | 0.00 | 0.00 | 52 | 1017.0 |
| 20260504024211 | 11 | 162 | 0.0 | 0.0 | 0.00 | 0.00 | 0.00 | 51 | 1016.9 |
| 20260504023708 | 11 | 157 | 0.0 | 0.0 | 0.00 | 0.00 | 0.00 | 51 | 1017.1 |
| 20260504023204 | 11 | 174 | 0.0 | 0.0 | 0.00 | 0.00 | 0.00 | 51 | 1017.2 |
| 20260504022701 | 11 | 158 | 0.0 | 0.0 | 0.00 | 0.00 | 0.00 | 51 | 1017.0 |
| 20260504022156 | 11 | 166 | 0.0 | 0.0 | 0.00 | 0.00 | 0.00 | 50 | 1017.1 |
| 20260504021655 | 11 | 156 | 0.0 | 0.0 | 0.00 | 0.00 | 0.00 | 49 | 1016.9 |
| 20260504021151 | 11 | 160 | 0.0 | 0.0 | 0.00 | 0.00 | 0.00 | 48 | 1017.0 |
| 20260504020648 | 11 | 166 | 0.0 | 0.0 | 0.00 | 0.00 | 0.00 | 49 | 1016.8 |
| 20260504020144 | 11 | 152 | 0.0 | 0.0 | 0.00 | 0.00 | 0.00 | 48 | 1016.7 |
| 20260504015641 | 12 | 164 | 0.0 | 0.0 | 0.00 | 0.00 | 0.00 | 47 | 1016.7 |
| 20260504015137 | 12 | 165 | 0.0 | 0.0 | 0.00 | 0.00 | 0.00 | 47 | 1016.9 |
| 20260504014633 | 12 | 156 | 0.0 | 0.0 | 0.00 | 0.00 | 0.00 | 46 | 1016.8 |
| 20260504014130 | 12 | 163 | 0.0 | 0.0 | 0.00 | 0.00 | 0.00 | 46 | 1016.5 |
| 20260504013628 | 12 | 160 | 0.0 | 0.0 | 0.00 | 0.00 | 0.00 | 43 | 1016.6 |
| 20260504013125 | 12 | 157 | 0.0 | 0.0 | 0.00 | 0.00 | 0.00 | 44 | 1016.5 |
| 20260504012622 | 12 | 159 | 0.0 | 0.0 | 0.00 | 0.00 | 0.00 | 43 | 1016.7 |
| 20260504012120 | 12 | 158 | 0.0 | 0.0 | 0.00 | 0.00 | 0.00 | 43 | 1016.6 |
| 20260504011616 | 13 | 166 | 0.0 | 0.0 | 0.00 | 0.00 | 0.00 | 42 | 1016.6 |
| 20260504011113 | 13 | 159 | 0.0 | 0.0 | 0.00 | 0.00 | 0.00 | 41 | 1016.3 |
| 20260504010608 | 13 | 155 | 0.0 | 0.0 | 0.00 | 0.00 | 0.00 | 41 | 1016.5 |
| 20260504010105 | 13 | 154 | 0.0 | 0.0 | 0.00 | 0.00 | 0.00 | 40 | 1016.6 |
| 20260504005602 | 13 | 156 | 0.0 | 0.0 | 0.00 | 0.00 | 0.00 | 39 | 1016.4 |
| 20260504005059 | 13 | 155 | 0.0 | 0.0 | 0.00 | 0.00 | 0.00 | 38 | 1016.4 |
| 20260504004556 | 13 | 154 | 0.0 | 0.0 | 0.00 | 0.00 | 0.00 | 39 | 1016.4 |
| 20260504004053 | 14 | 153 | 0.0 | 0.0 | 0.00 | 0.00 | 0.00 | 38 | 1016.3 |
| 20260504003549 | 15 | 150 | 0.0 | 0.0 | 0.00 | 0.00 | 0.00 | 37 | 1016.1 |
| 20260504003046 | 15 | 150 | 0.0 | 0.0 | 0.00 | 0.00 | 0.00 | 35 | 1016.2 |
| 20260504002543 | 15 | 165 | 0.0 | 0.0 | 0.00 | 0.00 | 0.00 | 35 | 1016.1 |
| 20260504002041 | 15 | 174 | 0.0 | 0.0 | 0.00 | 0.00 | 0.00 | 33 | 1016.2 |
| 20260504001538 | 15 | 172 | 0.0 | 0.0 | 0.00 | 0.00 | 0.00 | 33 | 1016.2 |
| 20260504001034 | 15 | 159 | 0.0 | 0.0 | 0.00 | 0.00 | 0.00 | 32 | 1016.1 |
| 20260504000532 | 16 | 177 | 0.0 | 0.0 | 0.00 | 0.00 | 0.00 | 31 | 1016.1 |
| 20260504000029 | 16 | 160 | 0.0 | 0.0 | 0.00 | 0.00 | 0.00 | 31 | 1016.2 |
| 20260503235527 | 16 | 164 | 0.0 | 3.2 | 0.00 | 0.00 | 0.00 | 31 | 1015.9 |
| 20260503235024 | 16 | 212 | 1.6 | 9.7 | 0.00 | 0.00 | 0.00 | 30 | 1016.0 |
| 20260503234521 | 16 | 225 | 3.2 | 3.2 | 0.00 | 0.00 | 0.00 | 30 | 1016.0 |
| 20260503234020 | 16 | 227 | 1.6 | 3.2 | 0.00 | 0.00 | 0.00 | 30 | 1016.1 |
| 20260503233515 | 16 | 212 | 0.0 | 4.8 | 0.00 | 0.00 | 0.00 | 30 | 1015.8 |
| 20260503233011 | 16 | 285 | 4.8 | 6.4 | 0.00 | 0.00 | 0.00 | 30 | 1015.7 |
| 20260503232509 | 17 | 195 | 1.6 | 4.8 | 0.00 | 0.00 | 0.00 | 30 | 1015.8 |
| 20260503232006 | 17 | 155 | 0.0 | 1.6 | 0.00 | 0.00 | 0.00 | 30 | 1015.8 |
| 20260503231504 | 17 | 180 | 1.6 | 3.2 | 0.00 | 0.00 | 0.00 | 29 | 1015.7 |
| 20260503231000 | 17 | 261 | 1.6 | 3.2 | 0.00 | 0.00 | 0.00 | 29 | 1015.7 |
| 20260503230457 | 17 | 212 | 1.6 | 3.2 | 0.00 | 0.00 | 0.00 | 29 | 1015.6 |
| 20260503225954 | 17 | 148 | 3.2 | 4.8 | 0.00 | 0.00 | 0.00 | 29 | 1015.6 |
| 20260503225451 | 17 | 155 | 0.0 | 6.4 | 0.00 | 0.00 | 0.00 | 29 | 1015.6 |
| 20260503224946 | 17 | 163 | 0.0 | 3.2 | 0.00 | 0.00 | 0.00 | 30 | 1015.6 |
| 20260503224444 | 17 | 150 | 1.6 | 1.6 | 0.00 | 0.00 | 0.00 | 28 | 1015.7 |
| 20260503223942 | 17 | 208 | 0.0 | 3.2 | 0.00 | 0.00 | 0.00 | 28 | 1015.8 |
| 20260503223439 | 18 | 217 | 1.6 | 3.2 | 0.00 | 0.00 | 0.00 | 27 | 1015.8 |
| 20260503222934 | 18 | 88 | 3.2 | 9.7 | 0.00 | 0.00 | 0.00 | 27 | 1015.4 |
| 20260503222433 | 18 | 149 | 3.2 | 6.4 | 0.00 | 0.00 | 0.00 | 26 | 1015.6 |
| 20260503221931 | 18 | 230 | 4.8 | 4.8 | 0.00 | 0.00 | 0.00 | 26 | 1015.7 |
| 20260503221429 | 19 | 186 | 3.2 | 6.4 | 0.00 | 0.00 | 0.00 | 26 | 1015.6 |
| 20260503220926 | 18 | 183 | 1.6 | 4.8 | 0.00 | 0.00 | 0.00 | 26 | 1015.8 |
| 20260503220422 | 18 | 221 | 4.8 | 6.4 | 0.00 | 0.00 | 0.00 | 26 | 1015.5 |
| 20260503215919 | 18 | 191 | 1.6 | 4.8 | 0.00 | 0.00 | 0.00 | 27 | 1015.8 |
| 20260503215416 | 18 | 219 | 8.0 | 12.9 | 0.00 | 0.00 | 0.00 | 27 | 1015.6 |
| 20260503214914 | 18 | 167 | 3.2 | 6.4 | 0.00 | 0.00 | 0.00 | 27 | 1015.9 |
| 20260503214411 | 18 | 193 | 3.2 | 9.7 | 0.00 | 0.00 | 0.00 | 26 | 1015.9 |
| 20260503213908 | 18 | 177 | 0.0 | 6.4 | 0.00 | 0.00 | 0.00 | 27 | 1015.8 |
| 20260503213406 | 18 | 216 | 6.4 | 9.7 | 0.00 | 0.00 | 0.00 | 26 | 1015.9 |
| 20260503212902 | 18 | 199 | 3.2 | 6.4 | 0.00 | 0.00 | 0.00 | 26 | 1015.8 |
| 20260503212400 | 18 | 146 | 3.2 | 9.7 | 0.00 | 0.00 | 0.00 | 27 | 1015.9 |
| 20260503211857 | 18 | 253 | 3.2 | 6.4 | 0.00 | 0.00 | 0.00 | 27 | 1015.7 |
| 20260503211354 | 18 | 243 | 1.6 | 9.7 | 0.00 | 0.00 | 0.00 | 27 | 1015.9 |
| 20260503210849 | 19 | 166 | 0.0 | 6.4 | 0.00 | 0.00 | 0.00 | 27 | 1016.0 |
| 20260503210347 | 19 | 173 | 1.6 | 4.8 | 0.00 | 0.00 | 0.00 | 27 | 1015.8 |
| 20260503205841 | 18 | 185 | 4.8 | 6.4 | 0.00 | 0.00 | 0.00 | 28 | 1016.2 |
| 20260503205339 | 18 | 134 | 1.6 | 6.4 | 0.00 | 0.00 | 0.00 | 28 | 1015.9 |
| 20260503204835 | 18 | 163 | 3.2 | 16.1 | 0.00 | 0.00 | 0.00 | 28 | 1016.1 |
| 20260503204332 | 20 | 252 | 4.8 | 6.4 | 0.00 | 0.00 | 0.00 | 27 | 1015.9 |
| 20260503203829 | 19 | 195 | 1.6 | 3.2 | 0.00 | 0.00 | 0.00 | 26 | 1016.2 |
| 20260503203327 | 18 | 164 | 3.2 | 6.4 | 0.00 | 0.00 | 0.00 | 29 | 1016.0 |
| 20260503202823 | 17 | 253 | 4.8 | 11.3 | 0.00 | 0.00 | 0.00 | 28 | 1016.0 |
| 20260503202322 | 18 | 193 | 1.6 | 9.7 | 0.00 | 0.00 | 0.00 | 28 | 1016.1 |
| 20260503201820 | 19 | 172 | 3.2 | 4.8 | 0.00 | 0.00 | 0.00 | 27 | 1016.4 |
| 20260503201316 | 18 | 217 | 6.4 | 9.7 | 0.00 | 0.00 | 0.00 | 29 | 1016.4 |
| 20260503200814 | 17 | 305 | 4.8 | 12.9 | 0.00 | 0.00 | 0.00 | 29 | 1016.4 |
| 20260503200310 | 18 | 256 | 4.8 | 6.4 | 0.00 | 0.00 | 0.00 | 28 | 1016.6 |
| 20260503195807 | 18 | 249 | 6.4 | 9.7 | 0.00 | 0.00 | 0.00 | 28 | 1016.6 |
| 20260503195304 | 18 | 217 | 6.4 | 14.5 | 0.00 | 0.00 | 0.00 | 29 | 1016.7 |
| 20260503194801 | 17 | 284 | 8.0 | 12.9 | 0.00 | 0.00 | 0.00 | 28 | 1016.6 |
| 20260503194256 | 18 | 247 | 8.0 | 12.9 | 0.00 | 0.00 | 0.00 | 28 | 1016.9 |
| 20260503193753 | 17 | 190 | 3.2 | 12.9 | 0.00 | 0.00 | 0.00 | 30 | 1016.9 |
| 20260503193249 | 18 | 162 | 0.0 | 4.8 | 0.00 | 0.00 | 0.00 | 30 | 1016.9 |
| 20260503192745 | 18 | 190 | 1.6 | 6.4 | 0.00 | 0.00 | 0.00 | 30 | 1017.1 |
| 20260503192240 | 18 | 164 | 3.2 | 6.4 | 0.00 | 0.00 | 0.00 | 29 | 1017.1 |
| 20260503191737 | 17 | 204 | 4.8 | 11.3 | 0.00 | 0.00 | 0.00 | 31 | 1017.0 |
| 20260503191234 | 17 | 269 | 8.0 | 11.3 | 0.00 | 0.00 | 0.00 | 31 | 1017.3 |
| 20260503190731 | 17 | 183 | 3.2 | 4.8 | 0.00 | 0.00 | 0.00 | 30 | 1017.4 |
| 20260503190222 | 17 | 221 | 1.6 | 3.2 | 0.00 | 0.00 | 0.00 | 30 | 1017.2 |
| 20260503185720 | 16 | 221 | 8.0 | 12.9 | 0.00 | 0.00 | 0.00 | 31 | 1017.3 |
| 20260503185215 | 17 | 290 | 11.3 | 14.5 | 0.00 | 0.00 | 0.00 | 31 | 1017.4 |
| 20260503184709 | 18 | 249 | 6.4 | 6.4 | 0.00 | 0.00 | 0.00 | 30 | 1017.6 |
| 20260503184206 | 18 | 134 | 1.6 | 4.8 | 0.00 | 0.00 | 0.00 | 32 | 1017.7 |
| 20260503183703 | 17 | 217 | 8.0 | 12.9 | 0.00 | 0.00 | 0.00 | 32 | 1017.6 |
| 20260503183200 | 17 | 124 | 3.2 | 9.7 | 0.00 | 0.00 | 0.00 | 33 | 1017.7 |
| 20260503182658 | 16 | 210 | 3.2 | 11.3 | 0.00 | 0.00 | 0.00 | 32 | 1017.6 |
| 20260503182156 | 16 | 220 | 6.4 | 11.3 | 0.00 | 0.00 | 0.00 | 32 | 1017.6 |
| 20260503181652 | 17 | 215 | 6.4 | 12.9 | 0.00 | 0.00 | 0.00 | 31 | 1017.8 |
| 20260503181149 | 17 | 235 | 3.2 | 3.2 | 0.00 | 0.00 | 0.00 | 30 | 1017.7 |
| 20260503180646 | 16 | 265 | 1.6 | 9.7 | 0.00 | 0.00 | 0.00 | 33 | 1017.9 |
| 20260503180144 | 17 | 227 | 3.2 | 6.4 | 0.00 | 0.00 | 0.00 | 31 | 1017.9 |
| 20260503175641 | 17 | 153 | 0.0 | 4.8 | 0.00 | 0.00 | 0.00 | 34 | 1017.9 |
| 20260503175138 | 16 | 206 | 0.0 | 9.7 | 0.00 | 0.00 | 0.00 | 34 | 1018.0 |
| 20260503174634 | 15 | 257 | 3.2 | 3.2 | 0.00 | 0.00 | 0.00 | 33 | 1018.1 |
| 20260503174132 | 16 | 172 | 1.6 | 4.8 | 0.00 | 0.00 | 0.00 | 32 | 1018.1 |
| 20260503173627 | 16 | 139 | 0.0 | 3.2 | 0.00 | 0.00 | 0.00 | 37 | 1018.1 |
| 20260503173124 | 16 | 185 | 3.2 | 11.3 | 0.00 | 0.00 | 0.00 | 33 | 1017.9 |
| 20260503172620 | 16 | 208 | 1.6 | 4.8 | 0.00 | 0.00 | 0.00 | 31 | 1018.1 |
| 20260503172118 | 15 | 142 | 3.2 | 4.8 | 0.00 | 0.00 | 0.00 | 32 | 1018.2 |
| 20260503171614 | 16 | 214 | 1.6 | 6.4 | 0.00 | 0.00 | 0.00 | 33 | 1018.1 |
| 20260503171112 | 16 | 238 | 1.6 | 6.4 | 0.00 | 0.00 | 0.00 | 33 | 1018.3 |
| 20260503170609 | 16 | 343 | 4.8 | 6.4 | 0.00 | 0.00 | 0.00 | 32 | 1018.2 |
| 20260503170105 | 15 | 145 | 0.0 | 4.8 | 0.00 | 0.00 | 0.00 | 35 | 1018.1 |